STARLINK-4693, 53605

Orbit data source: Space-Track

STARLINK-4693, 53605 is a payload satellite owned by SpaceX/Seattle (US) in LEO that was launched on Sun, 28 Aug 2022 UTC via an FALCON 9 launch vehicle from the Air Force Eastern Test Range (AFETR). Payload-class satellites include a variety of spacecraft equipped with specific instruments for various scientific and technological missions. These include communications satellites like Starlink; space stations such as the ISS; scientific satellites like the Hubble; Earth observation satellites from companies like Planet Labs, Umbra, and HawkEye 360; GPS; miniature CubeSats for education and research; and military/defense satellites.

Loading next visibility...
Identifier
53605, 2022-104T
Orbit
LEO
Country
Flag of USUS
Related business
Manufacturer
SpaceX/Seattle
Mission
Operational Commercial Communications
Bus & Motor
STARLINK, Unknown motor
Mass
300 kg wet, ~290 kg dry
Launch date (UTC)
2022-08-28 (3 years ago)
Launch vehicle
FALCON 9
Launch site
Air Force Eastern Test Range (AFETR)
Object type
Payload
Rocket body
Debris
Shape & HBR
Box + 1 Pan, 10.1 m
Radar Cross Section
13.562 m², Large (>1 m²)

Expand to show TLE details & history
Last TLE update: 13 hours ago

TLE from 13 hours ago
0 STARLINK-4693
1 53605U 22104T   25300.51829728  .00003866  00000-0  26087-3 0  9999
2 53605  53.2152 121.7253 0001477  96.9632 263.1528 15.08837626175516
Epoch: 2025-10-27T12:26Z
TLE epoch observation values (Epoch: 2025-10-27T12:26:20.884Z)
Latitude
-0.00001°
Longitude
-100.98072°
Altitude
540.77 km
Speed
7.593 km/s
True Right ascension
08h 06m 54s
True Declination
0° 00' 00"
Sunlit
Object was in daylight at epoch
Visualization orbit readout
Latitude
Unknown
Longitude
Unknown
Altitude
Unknown
Speed
Unknown
Apparent Right ascension
Unknown
Apparent Declination
Unknown
Sunlit
N/A
Visualization observer readout
Local Sidereal Time
20:23:21
Azimuth
Unknown
Elevation
Unknown
Doppler factor
Unknown
Orbital elements
Apogee altitude
541.018 km
Perigee altitude
538.974 km
Semi-major axis
6,918.133 km
Eccentricity
0.00015
Inclination
53.2152°
RAAN
121.7253°
Arg. of periapsis
96.9632°
True anomaly
263.136°
Mean anomaly
263.1528°
Eccentric anomaly
263.1444°
Mean motion
3.7719 °/min
Orbital period
95.44 mins
BSTAR
0.00026087
Loading maneuver chart data...
Computing Atmospheric mass density...
Loading historical data...
Loading historical data...
Loading historical data...
Loading historical data...
Loading historical data...
Loading historical data...
Loading historical data...

Documentation

Showing up to 5 results
|